Location: Banff
(51.1667°N, 115.5667°W)
Time: 15:48:30
(UTC+00:00)

Altair - Pass Details

Date: 26 November 2020
Orbit: 1501 x 1682 km, 47.2° (Epoch: 15 January)

Event Time Altitude Azimuth Distance (km) Brightness Sun altitude
Exits shadow 10:12:01 16° 135° (SE) 3,234 9.2 -46.4°
Drops below altitude 10° 10:13:33 10° 132° (SE) 3,698 9.6 -46.2°
Sets 10:16:42 0° 128° (SE) 4,700 10.3 -45.8°
